Вернуться в каталог

STARLINK-31237

АктивенСвязьVLEO
NORAD 58855·PAYLOAD·🇺🇸 United States

Запущен Jan 29, 2024 с Cape Canaveral Space Force Station

Loading…

Ближайшие Пролёты (ближайшие 24 часа)

TLE

СвежийSource: CelesTrak SupGP

Эпоха: Sep 15, 2026, 03:27 UTC

1 58855C 24019C   26258.14423611 -.00032491  00000+0 -11769-2 0  2586
2 58855  42.9988 258.7174 0001173 273.7541 327.2089 15.27591959    13

Отслеживайте STARLINK-31237 в реальном времени с AllMySat

Download on the App Store